カタログに戻る

YZ-1S DEB

運用中SSO
NORAD 43644·DEBRIS·🇨🇳 China

打ち上げ Oct 9, 2018 から Jiuquan Satellite Launch Center

Loading…

次のパス (今後24時間)

TLE

最新Source: Space-Track

元期: Sep 14, 2026, 13:26 UTC

1 43644U 18077C   26257.56024921  .00001502  00000-0  24257-3 0  9996
2 43644  97.9137 297.4526 0008096 129.3835 230.8091 14.72777383423795

AllMySatでYZ-1S DEBをリアルタイム追跡

Download on the App Store